Tracking 19247 objects as of 25-Sep-2018
HD Live streaming from Space Station
objects crossing your sky now

FENGYUN 1C DEB

Track FENGYUN 1C DEB now!
10-day predictions


NORAD ID: 32167
Int'l Code: 1999-025CTM
Perigee: 687.2 km
Apogee: 936.6 km
Inclination: 98.6 °
Period: 101.0 minutes
Semi major axis: 7182 km
RCS: 0.0085 m2 (small)
Launch date: May 10, 1999
Source: People's Republic of China (PRC)
Launch site: Taiyaun Space Center, China (TSC)

Note: This is SATELLITE DEBRIS
aabbcc
Your satellite tracking list
Your tracking list is empty




NASA's NSSDC Master Catalog

Two Line Element Set (TLE):
1 32167U 99025CTM 18267.30809184 +.00000117 +00000-0 +58831-4 0  9999
2 32167 098.5886 298.4769 0173598 238.0296 120.3907 14.26111107250646
Source of the keplerian elements: AFSPC